Time,TemperatureF,DewpointF,PressureIn,WindDirection,WindDirectionDegrees,WindSpeedMPH,WindSpeedGustMPH,Humidity,HourlyPrecipIn,Conditions,Clouds,dailyrainin,SoftwareType,DateUTC
2013-08-10 00:14:00,81.6,75.0,30.12,SSW,205,3.0,8.0,81,0.00,,,0.00,weatherlink.com 1.10,2013-08-10 04:14:00,
2013-08-10 00:29:00,81.5,76.0,30.12,SSW,205,3.0,6.0,82,0.00,,,0.00,weatherlink.com 1.10,2013-08-10 04:29:00,
2013-08-10 00:44:00,81.4,76.0,30.12,SSW,205,2.0,5.0,83,0.00,,,0.00,weatherlink.com 1.10,2013-08-10 04:44:00,
2013-08-10 00:59:00,81.4,76.0,30.11,SSW,205,2.0,5.0,84,0.00,,,0.00,weatherlink.com 1.10,2013-08-10 04:59:00,
2013-08-10 01:15:00,81.3,77.0,30.11,SSW,205,0.0,4.0,85,0.00,,,0.00,weatherlink.com 1.10,2013-08-10 05:15:00,
2013-08-10 01:29:00,81.3,77.0,30.11,SSW,206,2.0,5.0,85,0.00,,,0.00,weatherlink.com 1.10,2013-08-10 05:29:00,
2013-08-10 01:44:00,81.4,77.0,30.11,SSW,206,2.0,6.0,85,0.00,,,0.00,weatherlink.com 1.10,2013-08-10 05:44:00,
2013-08-10 02:01:00,81.2,76.0,30.11,SSW,205,2.0,6.0,84,0.00,,,0.00,weatherlink.com 1.10,2013-08-10 06:01:00,
2013-08-10 02:16:00,81.2,76.0,30.11,SSW,206,2.0,5.0,84,0.00,,,0.00,weatherlink.com 1.10,2013-08-10 06:16:00,
2013-08-10 02:30:00,81.4,76.0,30.11,SSW,206,3.0,7.0,83,0.00,,,0.00,weatherlink.com 1.10,2013-08-10 06:30:00,
2013-08-10 02:45:00,81.4,75.0,30.10,SSW,205,4.0,6.0,82,0.00,,,0.00,weatherlink.com 1.10,2013-08-10 06:45:00,
2013-08-10 03:01:00,81.6,75.0,30.10,SSW,205,5.0,10.0,81,0.00,,,0.00,weatherlink.com 1.10,2013-08-10 07:01:00,
2013-08-10 03:15:00,81.5,76.0,30.10,SSW,206,6.0,8.0,82,0.00,,,0.00,weatherlink.com 1.10,2013-08-10 07:15:00,
2013-08-10 03:31:00,81.4,76.0,30.10,SSW,205,4.0,10.0,84,0.00,,,0.00,weatherlink.com 1.10,2013-08-10 07:31:00,
2013-08-10 03:45:00,81.4,77.0,30.10,SSW,206,3.0,8.0,85,0.00,,,0.00,weatherlink.com 1.10,2013-08-10 07:45:00,
2013-08-10 04:01:00,81.2,76.0,30.10,SSW,206,3.0,7.0,85,0.00,,,0.00,weatherlink.com 1.10,2013-08-10 08:01:00,
2013-08-10 04:16:00,81.2,76.0,30.10,SSW,206,5.0,10.0,85,0.00,,,0.00,weatherlink.com 1.10,2013-08-10 08:16:00,
2013-08-10 04:30:00,81.2,77.0,30.09,SSW,205,3.0,7.0,86,0.00,,,0.00,weatherlink.com 1.10,2013-08-10 08:30:00,
2013-08-10 04:46:00,81.3,77.0,30.10,SSW,205,3.0,8.0,85,0.00,,,0.00,weatherlink.com 1.10,2013-08-10 08:46:00,
2013-08-10 05:02:00,81.4,76.0,30.10,SSW,205,4.0,9.0,84,0.00,,,0.00,weatherlink.com 1.10,2013-08-10 09:02:00,
2013-08-10 05:16:00,81.6,77.0,30.11,SSW,206,4.0,9.0,85,0.00,,,0.00,weatherlink.com 1.10,2013-08-10 09:16:00,
2013-08-10 05:31:00,81.6,76.0,30.10,SSW,206,6.0,13.0,84,0.00,,,0.00,weatherlink.com 1.10,2013-08-10 09:31:00,
2013-08-10 05:46:00,81.7,77.0,30.11,SSW,206,5.0,7.0,84,0.00,,,0.00,weatherlink.com 1.10,2013-08-10 09:46:00,
2013-08-10 06:02:00,81.6,77.0,30.11,SSW,205,5.0,9.0,85,0.00,,,0.00,weatherlink.com 1.10,2013-08-10 10:02:00,
2013-08-10 06:16:00,81.7,77.0,30.11,SSW,205,6.0,9.0,84,0.00,,,0.00,weatherlink.com 1.10,2013-08-10 10:16:00,
2013-08-10 06:32:00,81.7,77.0,30.12,SSW,206,5.0,10.0,85,0.00,,,0.00,weatherlink.com 1.10,2013-08-10 10:32:00,
2013-08-10 06:47:00,81.7,77.0,30.11,SSW,206,4.0,10.0,84,0.00,,,0.00,weatherlink.com 1.10,2013-08-10 10:47:00,
2013-08-10 07:03:00,81.8,77.0,30.12,SSW,205,4.0,9.0,84,0.00,,,0.00,weatherlink.com 1.10,2013-08-10 11:03:00,
2013-08-10 07:17:00,82.0,76.0,30.12,SSW,205,7.0,9.0,82,0.00,,,0.00,weatherlink.com 1.10,2013-08-10 11:17:00,
2013-08-10 07:32:00,82.5,76.0,30.12,SSW,206,6.0,11.0,80,0.00,,,0.00,weatherlink.com 1.10,2013-08-10 11:32:00,
2013-08-10 07:48:00,83.1,76.0,30.13,SSW,206,4.0,11.0,78,0.00,,,0.00,weatherlink.com 1.10,2013-08-10 11:48:00,
2013-08-10 08:03:00,83.4,76.0,30.13,SSW,205,5.0,11.0,79,0.00,,,0.00,weatherlink.com 1.10,2013-08-10 12:03:00,
2013-08-10 08:17:00,83.7,77.0,30.13,SSW,206,4.0,9.0,80,0.00,,,0.00,weatherlink.com 1.10,2013-08-10 12:17:00,
2013-08-10 08:33:00,83.6,76.0,30.14,SSW,206,5.0,11.0,78,0.00,,,0.00,weatherlink.com 1.10,2013-08-10 12:33:00,
2013-08-10 08:49:00,84.6,77.0,30.14,SSW,205,5.0,9.0,78,0.00,,,0.00,weatherlink.com 1.10,2013-08-10 12:49:00,
2013-08-10 09:03:00,84.8,77.0,30.15,SSW,205,10.0,10.0,77,0.00,,,0.00,weatherlink.com 1.10,2013-08-10 13:03:00,
2013-08-10 09:18:00,85.1,76.0,30.15,SSW,205,10.0,14.0,75,0.00,,,0.00,weatherlink.com 1.10,2013-08-10 13:18:00,
2013-08-10 09:33:00,85.4,76.0,30.15,SSW,205,5.0,15.0,74,0.00,,,0.00,weatherlink.com 1.10,2013-08-10 13:33:00,
2013-08-10 09:48:00,85.4,76.0,30.16,SSW,206,7.0,14.0,74,0.00,,,0.00,weatherlink.com 1.10,2013-08-10 13:48:00,
2013-08-10 10:03:00,86.2,77.0,30.16,SSW,205,4.0,12.0,74,0.00,,,0.00,weatherlink.com 1.10,2013-08-10 14:03:00,
2013-08-10 10:19:00,86.2,77.0,30.16,SSW,205,9.0,14.0,73,0.00,,,0.00,weatherlink.com 1.10,2013-08-10 14:19:00,
2013-08-10 10:33:00,86.4,77.0,30.17,SSW,206,5.0,14.0,73,0.00,,,0.00,weatherlink.com 1.10,2013-08-10 14:33:00,
2013-08-10 10:49:00,86.6,77.0,30.17,SSW,206,9.0,14.0,74,0.00,,,0.00,weatherlink.com 1.10,2013-08-10 14:49:00,
2013-08-10 11:03:00,87.1,77.0,30.17,SSW,205,10.0,13.0,72,0.00,,,0.00,weatherlink.com 1.10,2013-08-10 15:03:00,
2013-08-10 11:19:00,86.9,78.0,30.17,SSW,205,6.0,16.0,74,0.00,,,0.00,weatherlink.com 1.10,2013-08-10 15:19:00,
2013-08-10 11:35:00,86.4,77.0,30.18,SSW,206,9.0,15.0,73,0.00,,,0.00,weatherlink.com 1.10,2013-08-10 15:35:00,
2013-08-10 11:49:00,86.5,77.0,30.17,SSW,205,9.0,16.0,74,0.00,,,0.00,weatherlink.com 1.10,2013-08-10 15:49:00,
2013-08-10 12:05:00,87.2,78.0,30.18,SSW,205,11.0,13.0,73,0.00,,,0.00,weatherlink.com 1.10,2013-08-10 16:05:00,
2013-08-10 12:20:00,86.7,78.0,30.18,SSW,205,5.0,13.0,74,0.00,,,0.00,weatherlink.com 1.10,2013-08-10 16:20:00,
2013-08-10 12:34:00,86.6,78.0,30.18,SSW,205,6.0,15.0,75,0.00,,,0.00,weatherlink.com 1.10,2013-08-10 16:34:00,
2013-08-10 12:50:00,87.0,78.0,30.18,SSW,205,7.0,15.0,74,0.00,,,0.00,weatherlink.com 1.10,2013-08-10 16:50:00,
2013-08-10 13:05:00,86.6,77.0,30.17,SSW,205,6.0,15.0,74,0.00,,,0.00,weatherlink.com 1.10,2013-08-10 17:05:00,
2013-08-10 13:19:00,86.5,77.0,30.17,SSW,205,5.0,13.0,73,0.00,,,0.00,weatherlink.com 1.10,2013-08-10 17:19:00,
2013-08-10 13:35:00,87.6,78.0,30.17,SSW,205,4.0,13.0,73,0.00,,,0.00,weatherlink.com 1.10,2013-08-10 17:35:00,
2013-08-10 13:50:00,87.7,77.0,30.17,SSW,205,5.0,12.0,71,0.00,,,0.00,weatherlink.com 1.10,2013-08-10 17:50:00,
2013-08-10 14:05:00,87.5,77.0,30.16,SSW,205,4.0,11.0,72,0.00,,,0.00,weatherlink.com 1.10,2013-08-10 18:05:00,
2013-08-10 14:20:00,87.0,77.0,30.16,SSW,206,7.0,10.0,73,0.00,,,0.00,weatherlink.com 1.10,2013-08-10 18:20:00,
2013-08-10 14:35:00,86.6,77.0,30.16,SSW,205,7.0,14.0,74,0.00,,,0.00,weatherlink.com 1.10,2013-08-10 18:35:00,
2013-08-10 14:50:00,86.1,78.0,30.15,SSW,205,10.0,16.0,77,0.00,,,0.00,weatherlink.com 1.10,2013-08-10 18:50:00,
2013-08-10 15:06:00,86.4,78.0,30.14,SSW,205,6.0,14.0,77,0.00,,,0.00,weatherlink.com 1.10,2013-08-10 19:06:00,
2013-08-10 15:21:00,87.0,77.0,30.14,SSW,205,9.0,12.0,72,0.00,,,0.00,weatherlink.com 1.10,2013-08-10 19:21:00,
2013-08-10 15:36:00,86.6,78.0,30.14,SSW,205,8.0,13.0,75,0.00,,,0.00,weatherlink.com 1.10,2013-08-10 19:36:00,
2013-08-10 15:50:00,86.2,78.0,30.13,SSW,205,9.0,14.0,76,0.00,,,0.00,weatherlink.com 1.10,2013-08-10 19:50:00,
2013-08-10 16:06:00,86.6,78.0,30.13,SSW,205,6.0,10.0,76,0.00,,,0.00,weatherlink.com 1.10,2013-08-10 20:06:00,
2013-08-10 16:22:00,86.2,78.0,30.13,SSW,205,9.0,13.0,77,0.00,,,0.00,weatherlink.com 1.10,2013-08-10 20:22:00,
2013-08-10 16:36:00,85.9,78.0,30.13,SSW,206,6.0,12.0,77,0.00,,,0.00,weatherlink.com 1.10,2013-08-10 20:36:00,
2013-08-10 16:51:00,85.9,77.0,30.12,SSW,205,7.0,13.0,75,0.00,,,0.00,weatherlink.com 1.10,2013-08-10 20:51:00,
2013-08-10 17:07:00,85.6,78.0,30.12,SSW,206,6.0,12.0,77,0.00,,,0.00,weatherlink.com 1.10,2013-08-10 21:07:00,
2013-08-10 17:21:00,85.6,77.0,30.12,SSW,205,5.0,12.0,76,0.00,,,0.00,weatherlink.com 1.10,2013-08-10 21:21:00,
2013-08-10 17:36:00,86.1,78.0,30.12,SSW,205,4.0,12.0,77,0.00,,,0.00,weatherlink.com 1.10,2013-08-10 21:36:00,
2013-08-10 17:52:00,85.8,77.0,30.12,SSW,205,6.0,12.0,76,0.00,,,0.00,weatherlink.com 1.10,2013-08-10 21:52:00,
2013-08-10 18:07:00,85.5,78.0,30.12,SSW,205,6.0,12.0,77,0.00,,,0.00,weatherlink.com 1.10,2013-08-10 22:07:00,
2013-08-10 18:21:00,85.3,78.0,30.12,SSW,205,10.0,15.0,78,0.00,,,0.00,weatherlink.com 1.10,2013-08-10 22:21:00,
2013-08-10 18:37:00,85.1,77.0,30.12,SSW,206,7.0,12.0,77,0.00,,,0.00,weatherlink.com 1.10,2013-08-10 22:37:00,
2013-08-10 18:53:00,84.9,77.0,30.13,SSW,206,7.0,11.0,76,0.00,,,0.00,weatherlink.com 1.10,2013-08-10 22:53:00,
2013-08-10 19:06:00,84.7,77.0,30.13,SSW,206,4.0,11.0,78,0.00,,,0.00,weatherlink.com 1.10,2013-08-10 23:06:00,
2013-08-10 19:22:00,84.4,77.0,30.13,SSW,205,5.0,10.0,78,0.00,,,0.00,weatherlink.com 1.10,2013-08-10 23:22:00,
2013-08-10 19:38:00,84.0,77.0,30.13,SSW,205,4.0,9.0,79,0.00,,,0.00,weatherlink.com 1.10,2013-08-10 23:38:00,
2013-08-10 19:52:00,83.7,77.0,30.14,SSW,205,9.0,10.0,80,0.00,,,0.00,weatherlink.com 1.10,2013-08-10 23:52:00,
2013-08-10 20:07:00,83.5,77.0,30.14,SSW,205,7.0,10.0,80,0.00,,,0.00,weatherlink.com 1.10,2013-08-11 00:07:00,
2013-08-10 20:23:00,83.4,77.0,30.14,SSW,205,7.0,9.0,81,0.00,,,0.00,weatherlink.com 1.10,2013-08-11 00:23:00,
2013-08-10 20:38:00,83.2,77.0,30.14,SSW,205,3.0,11.0,82,0.00,,,0.00,weatherlink.com 1.10,2013-08-11 00:38:00,
2013-08-10 20:53:00,83.2,77.0,30.14,SSW,205,5.0,8.0,81,0.00,,,0.00,weatherlink.com 1.10,2013-08-11 00:53:00,
2013-08-10 21:07:00,83.1,77.0,30.14,SSW,206,6.0,10.0,81,0.00,,,0.00,weatherlink.com 1.10,2013-08-11 01:07:00,
2013-08-10 21:23:00,82.8,77.0,30.14,SSW,206,5.0,8.0,82,0.00,,,0.00,weatherlink.com 1.10,2013-08-11 01:23:00,
2013-08-10 21:38:00,82.8,77.0,30.14,SSW,205,7.0,7.0,82,0.00,,,0.00,weatherlink.com 1.10,2013-08-11 01:38:00,
2013-08-10 21:54:00,82.8,76.0,30.15,SSW,205,3.0,8.0,81,0.00,,,0.00,weatherlink.com 1.10,2013-08-11 01:54:00,
2013-08-10 22:08:00,82.9,77.0,30.15,SSW,205,5.0,10.0,81,0.00,,,0.00,weatherlink.com 1.10,2013-08-11 02:08:00,
2013-08-10 22:23:00,83.0,77.0,30.15,SSW,206,5.0,9.0,82,0.00,,,0.00,weatherlink.com 1.10,2013-08-11 02:23:00,
2013-08-10 22:39:00,83.0,77.0,30.16,SSW,205,4.0,9.0,81,0.00,,,0.00,weatherlink.com 1.10,2013-08-11 02:39:00,
2013-08-10 22:53:00,83.1,77.0,30.15,SSW,205,6.0,11.0,81,0.00,,,0.00,weatherlink.com 1.10,2013-08-11 02:53:00,
2013-08-10 23:09:00,83.0,77.0,30.16,SSW,205,4.0,10.0,83,0.00,,,0.00,weatherlink.com 1.10,2013-08-11 03:09:00,
2013-08-10 23:23:00,82.9,78.0,30.16,SSW,205,4.0,11.0,84,0.00,,,0.00,weatherlink.com 1.10,2013-08-11 03:23:00,
2013-08-10 23:39:00,82.7,77.0,30.16,SSW,205,7.0,9.0,82,0.00,,,0.00,weatherlink.com 1.10,2013-08-11 03:39:00,
2013-08-10 23:53:00,82.7,77.0,30.16,SSW,206,6.0,10.0,82,0.00,,,0.00,weatherlink.com 1.10,2013-08-11 03:53:00,